カタログに戻る

COSMOS 588

運用中軍事LEO
NORAD 6845·PAYLOAD·🇷🇺 Russia

打ち上げ Oct 2, 1973 から Plesetsk Cosmodrome

Loading…

次のパス (今後24時間)

TLE

最新Source: Space-Track

元期: Sep 14, 2026, 09:17 UTC

1 06845U 73069A   26257.38713969 -.00000026  00000-0 -68490-4 0  9997
2 06845  73.9982 233.0236 0028500  18.9682 148.8351 12.48637768413539

AllMySatでCOSMOS 588をリアルタイム追跡

Download on the App Store